• In Romania
  • List of Countries
  • For 7 days
  • Water Temperature
  • Satellite Maps
  • Weather Map
  • Weather Widgets
  • user-avatar
    Login

    Hourly Weather Zelenaya Niva

    Today, 26 September, Wednesday

    Time Temperature Precipitation Wind Pressure Humidity
    00:00 +3°C° 0 mm 4 mps 748 mmHg 78%
    01:00 +2°C° 0 mm 3 mps 748 mmHg 78%
    02:00 +2°C° 0 mm 3 mps 749 mmHg 78%
    03:00 +2°C° 0 mm 3 mps 749 mmHg 80%
    04:00 +1°C° 0 mm 3 mps 750 mmHg 82%
    05:00 +1°C° 0 mm 3 mps 750 mmHg 84%
    06:00 +2°C° 0 mm 3 mps 750 mmHg 83%
    07:00 +3°C° 0 mm 3 mps 750 mmHg 81%
    08:00 +4°C° 0 mm 4 mps 751 mmHg 80%
    09:00 +6°C° 0 mm 4 mps 751 mmHg 74%
    10:00 +7°C° 0 mm 4 mps 750 mmHg 68%
    11:00 +10°C° 0 mm 4 mps 750 mmHg 62%
    12:00 +9°C° 0 mm 5 mps 750 mmHg 60%
    13:00 +10°C° 0 mm 5 mps 749 mmHg 58%
    14:00 +12°C° 0 mm 5 mps 749 mmHg 56%
    15:00 +10°C° 0 mm 5 mps 748 mmHg 59%
    16:00 +9°C° 0 mm 5 mps 747 mmHg 62%
    17:00 +8°C° 0 mm 5 mps 746 mmHg 65%
    18:00 +8°C° 0.6 mm 6 mps 745 mmHg 71%
    19:00 +6°C° 0.6 mm 7 mps 743 mmHg 77%
    20:00 +6°C° 0.6 mm 7 mps 742 mmHg 83%
    21:00 +5°C° 1.5 mm 8 mps 741 mmHg 84%
    22:00 +5°C° 1.5 mm 8 mps 739 mmHg 86%
    23:00 +5°C° 1.5 mm 8 mps 738 mmHg 87%

    Tomorrow, 27 September, Thursday

    Time Temperature Precipitation Wind Pressure Humidity
    00:00 +5°C° 1 mm 8 mps 737 mmHg 87%
    01:00 +6°C° 1 mm 8 mps 736 mmHg 88%
    02:00 +6°C° 1 mm 8 mps 735 mmHg 88%
    03:00 +6°C° 0.8 mm 7 mps 735 mmHg 88%
    04:00 +7°C° 0.8 mm 6 mps 735 mmHg 88%
    05:00 +7°C° 0.8 mm 6 mps 734 mmHg 87%
    06:00 +7°C° 0.2 mm 6 mps 735 mmHg 85%
    07:00 +7°C° 0.2 mm 6 mps 735 mmHg 82%
    08:00 +7°C° 0.2 mm 6 mps 735 mmHg 79%
    09:00 +7°C° 0.2 mm 6 mps 736 mmHg 76%
    10:00 +8°C° 0.2 mm 7 mps 736 mmHg 73%
    11:00 +8°C° 0.2 mm 7 mps 736 mmHg 69%
    12:00 +8°C° 0.4 mm 7 mps 737 mmHg 70%
    13:00 +8°C° 0.4 mm 7 mps 737 mmHg 71%
    14:00 +8°C° 0.4 mm 7 mps 737 mmHg 72%
    15:00 +7°C° 0 mm 6 mps 738 mmHg 73%
    16:00 +7°C° 0 mm 5 mps 738 mmHg 74%
    17:00 +7°C° 0 mm 4 mps 738 mmHg 74%
    18:00 +6°C° 0 mm 4 mps 739 mmHg 75%
    19:00 +6°C° 0 mm 4 mps 739 mmHg 76%
    20:00 +5°C° 0 mm 4 mps 739 mmHg 77%
    21:00 +5°C° 0 mm 4 mps 739 mmHg 78%
    22:00 +5°C° 0 mm 4 mps 739 mmHg 78%
    23:00 +5°C° 0 mm 4 mps 739 mmHg 78%

    Day after tomorrow, 28 September, Friday

    Time Temperature Precipitation Wind Pressure Humidity
    00:00 +5°C° 0 mm 4 mps 739 mmHg 79%
    01:00 +5°C° 0 mm 3 mps 738 mmHg 80%
    02:00 +5°C° 0 mm 3 mps 738 mmHg 80%
    03:00 +5°C° 2.3 mm 3 mps 736 mmHg 85%
    04:00 +5°C° 2.3 mm 3 mps 735 mmHg 90%
    05:00 +5°C° 2.3 mm 3 mps 733 mmHg 95%
    06:00 +5°C° 2.5 mm 3 mps 733 mmHg 95%
    07:00 +7°C° 2.5 mm 3 mps 732 mmHg 95%
    08:00 +8°C° 2.5 mm 3 mps 731 mmHg 94%
    09:00 +7°C° 0.4 mm 4 mps 732 mmHg 92%
    10:00 +7°C° 0.4 mm 4 mps 733 mmHg 90%
    11:00 +7°C° 0.4 mm 5 mps 734 mmHg 87%
    12:00 +7°C° 0.1 mm 5 mps 735 mmHg 83%
    13:00 +7°C° 0.1 mm 5 mps 736 mmHg 79%
    14:00 +7°C° 0.1 mm 5 mps 737 mmHg 74%
    15:00 +6°C° 0 mm 4 mps 738 mmHg 75%
    16:00 +5°C° 0 mm 4 mps 739 mmHg 76%
    17:00 +5°C° 0 mm 3 mps 740 mmHg 76%
    18:00 +4°C° 0 mm 3 mps 741 mmHg 79%
    19:00 +3°C° 0 mm 3 mps 741 mmHg 82%
    20:00 +3°C° 0 mm 3 mps 742 mmHg 85%
    21:00 +2°C° 0 mm 3 mps 742 mmHg 87%
    22:00 +3°C° 0 mm 2 mps 743 mmHg 89%
    23:00 +3°C° 0 mm 2 mps 744 mmHg 91%

    29 September, Saturday

    Time Temperature Precipitation Wind Pressure Humidity
    00:00 +2°C° 0 mm 2 mps 744 mmHg 91%
    01:00 +2°C° 0 mm 2 mps 745 mmHg 91%
    02:00 +2°C° 0 mm 2 mps 745 mmHg 91%
    03:00 +1°C° 0 mm 2 mps 746 mmHg 90%
    04:00 +1°C° 0 mm 2 mps 746 mmHg 90%
    05:00 +1°C° 0 mm 2 mps 747 mmHg 90%
    06:00 +1°C° 0 mm 3 mps 748 mmHg 84%
    07:00 +1°C° 0 mm 3 mps 748 mmHg 79%
    08:00 +2°C° 0 mm 3 mps 749 mmHg 74%
    09:00 +3°C° 0 mm 3 mps 749 mmHg 67%
    10:00 +4°C° 0 mm 4 mps 750 mmHg 60%
    11:00 +6°C° 0 mm 4 mps 751 mmHg 54%
    12:00 +6°C° 0 mm 4 mps 751 mmHg 53%
    13:00 +6°C° 0 mm 4 mps 751 mmHg 51%
    14:00 +6°C° 0 mm 4 mps 751 mmHg 50%
    15:00 +5°C° 0 mm 3 mps 752 mmHg 55%
    16:00 +4°C° 0 mm 3 mps 752 mmHg 59%
    17:00 +4°C° 0 mm 2 mps 752 mmHg 64%
    18:00 +3°C° 0 mm 2 mps 753 mmHg 68%
    19:00 +2°C° 0 mm 2 mps 753 mmHg 72%
    20:00 +1°C° 0 mm 2 mps 754 mmHg 76%
    21:00 +1°C° 0 mm 2 mps 754 mmHg 77%
    22:00 +1°C° 0 mm 2 mps 754 mmHg 77%
    23:00 +1°C° 0 mm 2 mps 754 mmHg 78%

    30 September, Sunday

    Time Temperature Precipitation Wind Pressure Humidity
    00:00 +1°C° 0 mm 2 mps 754 mmHg 78%
    01:00 0°C° 0 mm 3 mps 754 mmHg 79%
    02:00 0°C° 0 mm 3 mps 754 mmHg 79%
    03:00 0°C° 0 mm 3 mps 754 mmHg 79%
    04:00 0°C° 0 mm 3 mps 754 mmHg 80%
    05:00 0°C° 0 mm 3 mps 754 mmHg 81%
    06:00 0°C° 0 mm 4 mps 754 mmHg 76%
    07:00 +1°C° 0 mm 4 mps 754 mmHg 72%
    08:00 +2°C° 0 mm 5 mps 754 mmHg 68%
    09:00 +5°C° 0 mm 5 mps 754 mmHg 63%
    10:00 +6°C° 0 mm 5 mps 753 mmHg 59%
    11:00 +8°C° 0 mm 6 mps 753 mmHg 54%
    12:00 +8°C° 0 mm 6 mps 753 mmHg 53%
    13:00 +8°C° 0 mm 6 mps 752 mmHg 52%
    14:00 +9°C° 0 mm 5 mps 752 mmHg 51%
    15:00 +8°C° 0 mm 5 mps 752 mmHg 54%
    16:00 +7°C° 0 mm 4 mps 751 mmHg 58%
    17:00 +6°C° 0 mm 4 mps 751 mmHg 61%
    18:00 +6°C° 0 mm 4 mps 751 mmHg 62%
    19:00 +5°C° 0 mm 4 mps 751 mmHg 63%
    20:00 +5°C° 0 mm 4 mps 751 mmHg 64%
    21:00 +5°C° 0 mm 4 mps 751 mmHg 65%
    22:00 +5°C° 0 mm 4 mps 750 mmHg 67%
    23:00 +5°C° 0 mm 4 mps 750 mmHg 69%

    1 October, Monday

    Time Temperature Precipitation Wind Pressure Humidity
    00:00 +4°C° 0 mm 4 mps 750 mmHg 71%
    01:00 +4°C° 0 mm 4 mps 750 mmHg 73%
    02:00 +4°C° 0 mm 4 mps 749 mmHg 75%
    03:00 +4°C° 0 mm 4 mps 749 mmHg 77%
    04:00 +4°C° 0 mm 4 mps 749 mmHg 79%
    05:00 +4°C° 0 mm 4 mps 749 mmHg 81%
    06:00 +5°C° 0 mm 4 mps 749 mmHg 80%
    07:00 +5°C° 0 mm 4 mps 749 mmHg 78%
    08:00 +6°C° 0 mm 4 mps 749 mmHg 77%
    09:00 +7°C° 0 mm 4 mps 749 mmHg 72%
    10:00 +8°C° 0 mm 4 mps 749 mmHg 68%
    11:00 +11°C° 0 mm 4 mps 749 mmHg 64%
    12:00 +11°C° 0 mm 4 mps 749 mmHg 62%
    13:00 +12°C° 0 mm 4 mps 748 mmHg 60%
    14:00 +12°C° 0 mm 4 mps 748 mmHg 59%
    15:00 +11°C° 0 mm 3 mps 748 mmHg 64%
    16:00 +10°C° 0 mm 3 mps 748 mmHg 70%
    17:00 +9°C° 0 mm 2 mps 748 mmHg 75%
    18:00 +8°C° 0 mm 2 mps 748 mmHg 78%
    19:00 +7°C° 0 mm 2 mps 748 mmHg 80%
    20:00 +6°C° 0 mm 2 mps 748 mmHg 83%
    21:00 +6°C° 0 mm 2 mps 748 mmHg 85%
    22:00 +6°C° 0 mm 2 mps 748 mmHg 86%
    23:00 +6°C° 0 mm 2 mps 748 mmHg 88%
    Show more